METEOR 2-5 DEB, 45507

Orbit data source: Space-Track

METEOR 2-5 DEB, 45507 is space debris in LEO originally from a launch on Wed, 31 Oct 1979 UTC launched from the Plesetsk Missile And Space Complex (PKMTR). Debris objects in space refer to the collection of defunct objects orbiting the Earth. Examples of debris include non-operational satellites, rocket bodies, and fragments generated from explosions, collisions, or faulty payload assembly.

Loading next visibility...
Identifier
45507, 1979-095CP
Orbit
LEO
Country
Flag of CISCIS
Related business
Manufacturer
Unknown
Mission
Spacecraft
Bus & Motor
Unknown
Mass
Unknown
Launch date (UTC)
1979-10-31 (47 years ago)
Launch vehicle
Unknown
Launch site
Plesetsk Missile And Space Complex (PKMTR)
Object type
Payload
Rocket body
Debris
Shape & HBR
Unknown shape, 0.1 m
Radar Cross Section
Small (<0.1 m²)

Expand to show TLE details & history
Last TLE update: 15 hours ago

TLE from 15 hours ago
0 METEOR 2-5 DEB
1 45507U 79095CP  26123.42961297  .00004149  00000-0  13827-2 0  9996
2 45507  81.1994 184.2965 0013047 135.1959 225.0282 14.37418621590729
Epoch: 2026-05-03T10:18Z
TLE epoch observation values (Epoch: 2026-05-03T10:18:38.560Z)
Latitude
-0.00011°
Longitude
168.30253°
Altitude
776.571 km
Speed
7.462 km/s
True Right ascension
12h 17m 11s
True Declination
0° 00' 00"
Sunlit
Object was in full shadow at epoch
Visualization orbit readout
Latitude
Unknown
Longitude
Unknown
Altitude
Unknown
Speed
Unknown
Apparent Right ascension
Unknown
Apparent Declination
Unknown
Sunlit
N/A
Visualization observer readout
Local Sidereal Time
09:35:56
Azimuth
Unknown
Elevation
Unknown
Doppler factor
Unknown
Orbital elements
Apogee altitude
773.498 km
Perigee altitude
754.861 km
Semi-major axis
7,142.317 km
Eccentricity
0.0013
Inclination
81.1994°
RAAN
184.2965°
Arg. of periapsis
135.1959°
True anomaly
224.92255°
Mean anomaly
225.0282°
Eccentric anomaly
224.97536°
Mean motion
3.59571 °/min
Orbital period
100.12 mins
BSTAR
0.0013827
Loading maneuver chart data...
Computing Atmospheric mass density...

Documentation

Showing up to 5 results
|